Torna al catalogo

CZ-4 DEB

AttivoSSO
NORAD 26241·DEBRIS·🇨🇳 China

Lanciato Oct 14, 1999 da Taiyuan Satellite Launch Center

Loading…

Prossimi Passaggi (prossime 24 ore)

TLE

AggiornatoSource: Space-Track

Epoca: Sep 14, 2026, 07:53 UTC

1 26241U 99057EF  26257.32862450  .00000161  00000-0  68983-4 0  9993
2 26241  98.8955 280.2118 0109166 129.0972 298.4252 14.34683277384468

Traccia CZ-4 DEB in tempo reale con AllMySat

Download on the App Store